| time (UTC) | temp F | wind direction | speed knots | gust knots | rain 1hr in | rain 24hr in | rain mn in | humidity % | barometer mb |
| 20260901000219 | 64 | 353 | 4.3 | 10.4 | 0.00 | 0.00 | 0.00 | 61 | 1025.3 |
| 20260831235219 | 63 | 333 | 7.0 | 10.4 | 0.00 | 0.00 | 0.00 | 62 | 1025.5 |
| 20260831234719 | 63 | 338 | 5.2 | 10.4 | 0.00 | 0.00 | 0.00 | 63 | 1025.7 |
| 20260831234219 | 62 | 350 | 7.0 | 11.3 | 0.00 | 0.00 | 0.00 | 63 | 1025.6 |
| 20260831233719 | 62 | 323 | 6.1 | 10.4 | 0.00 | 0.00 | 0.00 | 65 | 1025.7 |
| 20260831233219 | 61 | 343 | 6.1 | 10.4 | 0.00 | 0.00 | 0.00 | 65 | 1026.0 |
| 20260831232219 | 61 | 344 | 8.7 | 10.4 | 0.00 | 0.00 | 0.00 | 67 | 1026.2 |
| 20260831231218 | 60 | 337 | 7.8 | 10.4 | 0.00 | 0.00 | 0.00 | 69 | 1026.1 |
| 20260831230719 | 60 | 323 | 7.8 | 11.3 | 0.00 | 0.00 | 0.00 | 69 | 1026.2 |
| 20260831225719 | 59 | 337 | 5.2 | 8.7 | 0.00 | 0.00 | 0.00 | 71 | 1026.2 |
| 20260831225219 | 59 | 328 | 7.8 | 10.4 | 0.00 | 0.00 | 0.00 | 71 | 1026.4 |
| 20260831224219 | 58 | 329 | 8.7 | 11.3 | 0.00 | 0.00 | 0.00 | 73 | 1026.6 |
| 20260831223719 | 58 | 328 | 8.7 | 12.2 | 0.00 | 0.00 | 0.00 | 73 | 1026.5 |
| 20260831223219 | 58 | 324 | 10.4 | 12.2 | 0.00 | 0.00 | 0.00 | 73 | 1026.5 |
| 20260831222219 | 57 | 323 | 9.6 | 13.9 | 0.00 | 0.00 | 0.00 | 75 | 1026.8 |
| 20260831221219 | 56 | 320 | 10.4 | 12.2 | 0.00 | 0.00 | 0.00 | 77 | 1026.7 |
| 20260831220719 | 56 | 325 | 9.6 | 11.3 | 0.00 | 0.00 | 0.00 | 78 | 1026.8 |
| 20260831214719 | 55 | 324 | 10.4 | 12.2 | 0.00 | 0.00 | 0.00 | 81 | 1027.0 |
| 20260831214218 | 55 | 325 | 7.8 | 10.4 | 0.00 | 0.00 | 0.00 | 83 | 1026.9 |
| 20260831212719 | 54 | 320 | 8.7 | 11.3 | 0.00 | 0.00 | 0.00 | 85 | 1026.9 |
| 20260831212219 | 53 | 320 | 9.6 | 12.2 | 0.00 | 0.00 | 0.00 | 87 | 1026.9 |
| 20260831211719 | 53 | 320 | 10.4 | 11.3 | 0.00 | 0.00 | 0.00 | 87 | 1026.9 |
| 20260831211219 | 53 | 322 | 8.7 | 11.3 | 0.00 | 0.00 | 0.00 | 87 | 1026.7 |
| 20260831210719 | 53 | 325 | 9.6 | 11.3 | 0.00 | 0.00 | 0.00 | 89 | 1026.6 |
| 20260831210218 | 52 | 328 | 8.7 | 10.4 | 0.00 | 0.00 | 0.00 | 89 | 1026.6 |
| 20260831205719 | 52 | 332 | 9.6 | 11.3 | 0.00 | 0.00 | 0.00 | 89 | 1026.7 |
| 20260831205218 | 52 | 334 | 10.4 | 11.3 | 0.00 | 0.00 | 0.00 | 90 | 1026.5 |
| 20260831204719 | 52 | 332 | 9.6 | 12.2 | 0.00 | 0.00 | 0.00 | 90 | 1026.9 |
| 20260831204219 | 52 | 330 | 9.6 | 12.2 | 0.00 | 0.00 | 0.00 | 90 | 1026.5 |
| 20260831203719 | 52 | 331 | 8.7 | 10.4 | 0.00 | 0.00 | 0.00 | 90 | 1026.7 |
| 20260831203218 | 52 | 334 | 8.7 | 10.4 | 0.00 | 0.00 | 0.00 | 90 | 1026.5 |
| 20260831202719 | 52 | 338 | 8.7 | 10.4 | 0.00 | 0.00 | 0.00 | 90 | 1026.4 |
| 20260831201719 | 52 | 340 | 7.8 | 10.4 | 0.00 | 0.00 | 0.00 | 90 | 1026.3 |
| 20260831201219 | 52 | 343 | 7.8 | 10.4 | 0.00 | 0.00 | 0.00 | 89 | 1026.3 |
| 20260831200718 | 52 | 344 | 8.7 | 10.4 | 0.00 | 0.00 | 0.00 | 89 | 1026.5 |
| 20260831200219 | 52 | 342 | 7.8 | 10.4 | 0.00 | 0.00 | 0.00 | 89 | 1026.3 |
| 20260831195719 | 52 | 340 | 7.8 | 10.4 | 0.00 | 0.00 | 0.00 | 89 | 1026.4 |
| 20260831195219 | 52 | 336 | 7.8 | 11.3 | 0.00 | 0.00 | 0.00 | 89 | 1026.3 |
| 20260831194719 | 52 | 332 | 9.6 | 11.3 | 0.00 | 0.00 | 0.00 | 88 | 1026.5 |
| 20260831194219 | 52 | 330 | 10.4 | 12.2 | 0.00 | 0.00 | 0.00 | 88 | 1026.4 |
| 20260831193718 | 53 | 332 | 10.4 | 12.2 | 0.00 | 0.00 | 0.00 | 88 | 1026.4 |
| 20260831193218 | 53 | 331 | 10.4 | 12.2 | 0.00 | 0.00 | 0.00 | 88 | 1026.3 |
| 20260831192719 | 53 | 331 | 10.4 | 12.2 | 0.00 | 0.00 | 0.00 | 88 | 1026.4 |
| 20260831192218 | 53 | 334 | 10.4 | 11.3 | 0.00 | 0.00 | 0.00 | 88 | 1026.5 |
| 20260831191718 | 53 | 332 | 8.7 | 11.3 | 0.00 | 0.01 | 0.00 | 87 | 1026.5 |
| 20260831191218 | 53 | 331 | 9.6 | 11.3 | 0.00 | 0.01 | 0.00 | 87 | 1026.5 |
| 20260831190718 | 53 | 330 | 9.6 | 10.4 | 0.00 | 0.01 | 0.00 | 87 | 1026.3 |
| 20260831190219 | 53 | 326 | 8.7 | 10.4 | 0.00 | 0.01 | 0.00 | 86 | 1026.4 |
| 20260831185219 | 53 | 321 | 8.7 | 10.4 | 0.00 | 0.01 | 0.00 | 86 | 1026.6 |
| 20260831184719 | 53 | 324 | 8.7 | 10.4 | 0.00 | 0.01 | 0.00 | 86 | 1026.5 |
| 20260831184219 | 54 | 325 | 8.7 | 10.4 | 0.00 | 0.01 | 0.00 | 85 | 1026.6 |
| 20260831183718 | 54 | 320 | 8.7 | 10.4 | 0.00 | 0.01 | 0.00 | 85 | 1026.3 |
| 20260831183219 | 54 | 323 | 8.7 | 10.4 | 0.00 | 0.01 | 0.00 | 85 | 1026.2 |
| 20260831182718 | 54 | 326 | 8.7 | 10.4 | 0.00 | 0.01 | 0.00 | 85 | 1026.2 |
| 20260831182218 | 54 | 321 | 10.4 | 10.4 | 0.00 | 0.01 | 0.00 | 84 | 1026.4 |
| 20260831181718 | 54 | 319 | 10.4 | 10.4 | 0.00 | 0.01 | 0.00 | 84 | 1026.4 |
| 20260831181219 | 54 | 316 | 10.4 | 11.3 | 0.00 | 0.01 | 0.00 | 84 | 1026.5 |
| 20260831180718 | 54 | 315 | 11.3 | 11.3 | 0.00 | 0.01 | 0.00 | 84 | 1026.5 |
| 20260831180218 | 54 | 314 | 10.4 | 11.3 | 0.00 | 0.01 | 0.00 | 83 | 1026.5 |
| 20260831175718 | 55 | 317 | 11.3 | 11.3 | 0.00 | 0.01 | 0.00 | 83 | 1026.3 |
| 20260831175218 | 55 | 317 | 11.3 | 11.3 | 0.00 | 0.01 | 0.00 | 82 | 1026.4 |
| 20260831174718 | 55 | 321 | 10.4 | 12.2 | 0.00 | 0.01 | 0.00 | 82 | 1026.4 |
| 20260831173719 | 55 | 315 | 11.3 | 12.2 | 0.00 | 0.01 | 0.00 | 80 | 1026.4 |
| 20260831173219 | 56 | 319 | 11.3 | 12.2 | 0.00 | 0.01 | 0.00 | 80 | 1026.5 |
| 20260831172718 | 56 | 317 | 12.2 | 12.2 | 0.00 | 0.01 | 0.00 | 80 | 1026.5 |
| 20260831172218 | 56 | 314 | 11.3 | 11.3 | 0.00 | 0.01 | 0.00 | 79 | 1026.5 |
| 20260831171719 | 57 | 314 | 11.3 | 11.3 | 0.00 | 0.01 | 0.00 | 80 | 1026.6 |
| 20260831171218 | 57 | 314 | 11.3 | 11.3 | 0.00 | 0.01 | 0.00 | 80 | 1026.5 |
| 20260831170719 | 57 | 315 | 11.3 | 11.3 | 0.00 | 0.01 | 0.00 | 80 | 1026.6 |
| 20260831170218 | 57 | 313 | 10.4 | 11.3 | 0.00 | 0.01 | 0.00 | 79 | 1026.6 |
| 20260831165718 | 57 | 313 | 10.4 | 11.3 | 0.00 | 0.01 | 0.00 | 79 | 1026.6 |
| 20260831165218 | 57 | 311 | 10.4 | 11.3 | 0.00 | 0.01 | 0.00 | 79 | 1026.7 |
| 20260831164719 | 57 | 312 | 10.4 | 10.4 | 0.00 | 0.01 | 0.00 | 79 | 1026.7 |
| 20260831164218 | 57 | 308 | 10.4 | 11.3 | 0.00 | 0.01 | 0.00 | 79 | 1027.0 |
| 20260831163718 | 57 | 312 | 10.4 | 10.4 | 0.00 | 0.01 | 0.00 | 79 | 1027.0 |
| 20260831163218 | 57 | 316 | 10.4 | 10.4 | 0.00 | 0.01 | 0.00 | 79 | 1026.9 |
| 20260831162218 | 57 | 321 | 8.7 | 10.4 | 0.00 | 0.01 | 0.00 | 78 | 1027.2 |
| 20260831161718 | 57 | 324 | 8.7 | 8.7 | 0.00 | 0.01 | 0.00 | 78 | 1027.1 |
| 20260831161218 | 57 | 324 | 8.7 | 10.4 | 0.00 | 0.01 | 0.00 | 77 | 1027.4 |
| 20260831160718 | 57 | 324 | 7.8 | 8.7 | 0.00 | 0.01 | 0.00 | 77 | 1027.6 |
| 20260831160218 | 57 | 324 | 7.8 | 8.7 | 0.00 | 0.01 | 0.00 | 77 | 1027.5 |
| 20260831155718 | 57 | 325 | 7.8 | 8.7 | 0.00 | 0.01 | 0.00 | 76 | 1027.5 |
| 20260831155218 | 57 | 326 | 7.8 | 8.7 | 0.00 | 0.01 | 0.00 | 76 | 1027.6 |
| 20260831154718 | 57 | 328 | 7.8 | 8.7 | 0.00 | 0.01 | 0.00 | 75 | 1027.6 |
| 20260831153718 | 58 | 327 | 7.8 | 7.8 | 0.00 | 0.01 | 0.00 | 75 | 1027.8 |
| 20260831153218 | 58 | 327 | 7.8 | 8.7 | 0.00 | 0.01 | 0.00 | 74 | 1027.9 |
| 20260831152718 | 58 | 326 | 7.8 | 7.8 | 0.00 | 0.01 | 0.00 | 73 | 1027.9 |
| 20260831152218 | 58 | 329 | 7.8 | 8.7 | 0.00 | 0.01 | 0.00 | 72 | 1027.9 |
| 20260831151218 | 58 | 329 | 7.0 | 7.8 | 0.00 | 0.01 | 0.00 | 72 | 1028.2 |
| 20260831150718 | 58 | 333 | 7.0 | 7.8 | 0.00 | 0.01 | 0.00 | 72 | 1028.2 |
| 20260831150218 | 58 | 329 | 7.0 | 7.8 | 0.00 | 0.01 | 0.00 | 72 | 1028.2 |
| 20260831145718 | 58 | 325 | 7.8 | 7.8 | 0.00 | 0.01 | 0.00 | 72 | 1028.4 |
| 20260831145218 | 58 | 323 | 7.0 | 7.8 | 0.00 | 0.01 | 0.00 | 72 | 1028.2 |
| 20260831144718 | 58 | 319 | 7.0 | 7.8 | 0.00 | 0.01 | 0.00 | 72 | 1028.3 |
| 20260831144217 | 59 | 318 | 6.1 | 7.0 | 0.00 | 0.01 | 0.00 | 71 | 1028.3 |
| 20260831143718 | 59 | 322 | 6.1 | 7.0 | 0.00 | 0.01 | 0.00 | 71 | 1028.3 |
| 20260831143218 | 59 | 322 | 7.0 | 7.0 | 0.00 | 0.01 | 0.00 | 71 | 1028.3 |
| 20260831142728 | 59 | 318 | 7.0 | 7.8 | 0.00 | 0.01 | 0.00 | 71 | 1028.5 |
| 20260831141718 | 59 | 318 | 7.0 | 7.0 | 0.00 | 0.01 | 0.00 | 71 | 1028.5 |
| 20260831141217 | 59 | 317 | 6.1 | 7.0 | 0.00 | 0.01 | 0.00 | 71 | 1028.5 |
| 20260831140718 | 59 | 312 | 6.1 | 6.1 | 0.00 | 0.01 | 0.00 | 70 | 1028.6 |
| 20260831140218 | 60 | 320 | 6.1 | 6.1 | 0.00 | 0.01 | 0.00 | 69 | 1028.7 |
| 20260831134718 | 60 | 338 | 6.1 | 6.1 | 0.00 | 0.01 | 0.01 | 69 | 1028.6 |
| 20260831134218 | 60 | 338 | 5.2 | 6.1 | 0.00 | 0.01 | 0.01 | 69 | 1028.8 |
| 20260831133718 | 60 | 338 | 5.2 | 6.1 | 0.00 | 0.01 | 0.01 | 69 | 1028.7 |
| 20260831133218 | 60 | 338 | 5.2 | 6.1 | 0.00 | 0.01 | 0.01 | 69 | 1028.7 |
| 20260831132718 | 60 | 338 | 5.2 | 6.1 | 0.00 | 0.01 | 0.01 | 68 | 1028.7 |
| 20260831132218 | 60 | 337 | 5.2 | 6.1 | 0.00 | 0.01 | 0.01 | 69 | 1028.8 |
| 20260831131718 | 60 | 337 | 5.2 | 7.0 | 0.00 | 0.01 | 0.01 | 68 | 1028.9 |
| 20260831131217 | 60 | 340 | 6.1 | 7.8 | 0.00 | 0.01 | 0.01 | 69 | 1028.9 |
| 20260831130718 | 60 | 343 | 6.1 | 7.8 | 0.00 | 0.01 | 0.01 | 69 | 1029.1 |
| 20260831130218 | 60 | 337 | 6.1 | 7.0 | 0.00 | 0.01 | 0.01 | 69 | 1029.2 |
| 20260831125218 | 60 | 334 | 7.0 | 7.8 | 0.00 | 0.01 | 0.01 | 69 | 1029.1 |
| 20260831124217 | 61 | 332 | 6.1 | 7.8 | 0.00 | 0.01 | 0.01 | 70 | 1029.1 |
| 20260831123717 | 61 | 335 | 6.1 | 7.8 | 0.00 | 0.01 | 0.01 | 69 | 1029.3 |
| 20260831123218 | 61 | 332 | 6.1 | 7.0 | 0.00 | 0.01 | 0.01 | 69 | 1029.2 |
| 20260831122717 | 61 | 338 | 6.1 | 8.7 | 0.00 | 0.01 | 0.01 | 69 | 1029.2 |
| 20260831122218 | 60 | 340 | 7.0 | 7.8 | 0.00 | 0.01 | 0.01 | 69 | 1029.2 |
| 20260831121718 | 60 | 336 | 7.0 | 7.8 | 0.00 | 0.01 | 0.01 | 70 | 1029.4 |
| 20260831121217 | 60 | 322 | 6.1 | 7.0 | 0.00 | 0.01 | 0.01 | 71 | 1029.3 |
| 20260831115718 | 60 | 304 | 5.2 | 6.1 | 0.00 | 0.01 | 0.01 | 77 | 1029.3 |
| 20260831115217 | 60 | 297 | 4.3 | 6.1 | 0.00 | 0.01 | 0.01 | 78 | 1029.5 |
| 20260831114718 | 60 | 287 | 4.3 | 5.2 | 0.00 | 0.01 | 0.01 | 79 | 1029.6 |
| 20260831113717 | 61 | 291 | 4.3 | 4.3 | 0.00 | 0.01 | 0.01 | 78 | 1029.6 |
| 20260831113217 | 61 | 333 | 2.6 | 2.6 | 0.00 | 0.01 | 0.01 | 78 | 1029.6 |
| 20260831112218 | 61 | 339 | 4.3 | 5.2 | 0.00 | 0.01 | 0.01 | 77 | 1029.4 |
| 20260831111718 | 61 | 348 | 4.3 | 6.1 | 0.00 | 0.01 | 0.01 | 77 | 1029.5 |
| 20260831110717 | 62 | 1 | 7.0 | 8.7 | 0.00 | 0.01 | 0.01 | 77 | 1029.6 |
| 20260831110218 | 62 | 1 | 7.8 | 8.7 | 0.00 | 0.01 | 0.01 | 77 | 1029.6 |
| 20260831105718 | 62 | 1 | 7.8 | 10.4 | 0.00 | 0.01 | 0.01 | 77 | 1029.7 |
| 20260831105217 | 62 | 3 | 7.8 | 10.4 | 0.00 | 0.01 | 0.01 | 78 | 1029.5 |
| 20260831104217 | 62 | 1 | 7.8 | 10.4 | 0.00 | 0.01 | 0.01 | 79 | 1029.6 |
| 20260831103717 | 62 | 2 | 7.8 | 10.4 | 0.00 | 0.01 | 0.01 | 80 | 1029.7 |
| 20260831103217 | 62 | 1 | 7.8 | 8.7 | 0.00 | 0.01 | 0.01 | 80 | 1029.6 |
| 20260831102717 | 62 | 3 | 7.8 | 10.4 | 0.00 | 0.01 | 0.01 | 80 | 1029.9 |
| 20260831102217 | 62 | 4 | 7.0 | 8.7 | 0.00 | 0.01 | 0.01 | 81 | 1029.5 |
| 20260831101717 | 61 | 2 | 6.1 | 8.7 | 0.00 | 0.01 | 0.01 | 81 | 1029.7 |
| 20260831101217 | 61 | 1 | 6.1 | 7.8 | 0.00 | 0.01 | 0.01 | 81 | 1029.6 |
| 20260831100217 | 62 | 8 | 5.2 | 7.8 | 0.00 | 0.01 | 0.01 | 81 | 1029.6 |
| 20260831095717 | 62 | 1 | 6.1 | 7.8 | 0.00 | 0.01 | 0.01 | 81 | 1029.7 |
| 20260831095217 | 62 | 1 | 7.0 | 10.4 | 0.00 | 0.01 | 0.01 | 81 | 1029.6 |
| 20260831094717 | 62 | 3 | 6.1 | 7.8 | 0.00 | 0.01 | 0.01 | 81 | 1029.6 |
| 20260831094217 | 62 | 3 | 7.8 | 10.4 | 0.00 | 0.01 | 0.01 | 81 | 1029.4 |
| 20260831093717 | 62 | 0 | 6.1 | 8.7 | 0.00 | 0.01 | 0.01 | 81 | 1029.6 |
| 20260831093217 | 62 | 0 | 5.2 | 7.0 | 0.00 | 0.01 | 0.01 | 80 | 1029.5 |
| 20260831092717 | 62 | 11 | 5.2 | 7.8 | 0.00 | 0.01 | 0.01 | 80 | 1029.4 |
| 20260831091717 | 62 | 12 | 5.2 | 8.7 | 0.00 | 0.01 | 0.01 | 80 | 1029.4 |
| 20260831091217 | 62 | 12 | 6.1 | 10.4 | 0.00 | 0.01 | 0.01 | 80 | 1029.4 |
| 20260831085717 | 62 | 12 | 5.2 | 7.0 | 0.00 | 0.01 | 0.01 | 79 | 1029.4 |
| 20260831085217 | 62 | 18 | 5.2 | 7.8 | 0.00 | 0.01 | 0.01 | 80 | 1029.2 |
| 20260831084717 | 62 | 13 | 5.2 | 7.8 | 0.00 | 0.01 | 0.01 | 80 | 1029.2 |
| 20260831083718 | 62 | 15 | 5.2 | 8.7 | 0.00 | 0.01 | 0.01 | 80 | 1029.3 |
| 20260831083218 | 62 | 16 | 4.3 | 7.0 | 0.00 | 0.01 | 0.01 | 80 | 1029.4 |
| 20260831082717 | 62 | 18 | 6.1 | 7.8 | 0.00 | 0.01 | 0.01 | 80 | 1029.2 |
| 20260831082217 | 62 | 23 | 5.2 | 8.7 | 0.00 | 0.01 | 0.01 | 80 | 1029.1 |
| 20260831081217 | 62 | 25 | 6.1 | 7.8 | 0.00 | 0.01 | 0.01 | 78 | 1029.1 |
| 20260831075717 | 62 | 24 | 6.1 | 10.4 | 0.00 | 0.01 | 0.01 | 77 | 1029.0 |
| 20260831075217 | 62 | 31 | 8.7 | 10.4 | 0.00 | 0.01 | 0.01 | 76 | 1029.0 |
| 20260831074717 | 62 | 34 | 8.7 | 11.3 | 0.00 | 0.01 | 0.01 | 75 | 1029.0 |
| 20260831074217 | 62 | 30 | 7.8 | 11.3 | 0.00 | 0.01 | 0.01 | 74 | 1028.9 |
| 20260831073717 | 63 | 37 | 10.4 | 11.3 | 0.00 | 0.01 | 0.01 | 73 | 1029.0 |
| 20260831073217 | 63 | 42 | 9.6 | 10.4 | 0.00 | 0.01 | 0.01 | 72 | 1029.0 |
| 20260831072717 | 63 | 40 | 8.7 | 10.4 | 0.00 | 0.01 | 0.01 | 72 | 1028.9 |
| 20260831072217 | 63 | 40 | 6.1 | 7.8 | 0.00 | 0.01 | 0.01 | 72 | 1029.0 |
| 20260831071217 | 63 | 50 | 6.1 | 10.4 | 0.00 | 0.01 | 0.01 | 71 | 1029.0 |
| 20260831065717 | 63 | 41 | 10.4 | 11.3 | 0.00 | 0.01 | 0.01 | 70 | 1029.0 |
| 20260831065217 | 63 | 43 | 8.7 | 11.3 | 0.00 | 0.01 | 0.01 | 71 | 1028.9 |
| 20260831064717 | 64 | 39 | 8.7 | 11.3 | 0.00 | 0.01 | 0.01 | 70 | 1028.9 |
| 20260831063716 | 64 | 32 | 10.4 | 11.3 | 0.00 | 0.01 | 0.01 | 68 | 1028.8 |
| 20260831062717 | 64 | 45 | 8.7 | 11.3 | 0.00 | 0.01 | 0.01 | 69 | 1028.7 |
| 20260831062217 | 64 | 43 | 8.7 | 11.3 | 0.00 | 0.01 | 0.01 | 66 | 1028.6 |
| 20260831061717 | 64 | 42 | 8.7 | 12.2 | 0.00 | 0.01 | 0.01 | 66 | 1028.7 |
| 20260831061217 | 64 | 52 | 10.4 | 11.3 | 0.00 | 0.01 | 0.01 | 67 | 1028.7 |
| 20260831060717 | 64 | 48 | 8.7 | 10.4 | 0.00 | 0.01 | 0.01 | 65 | 1028.6 |
| 20260831060217 | 64 | 55 | 8.7 | 10.4 | 0.00 | 0.01 | 0.01 | 67 | 1028.6 |
| 20260831055716 | 64 | 56 | 8.7 | 10.4 | 0.00 | 0.01 | 0.01 | 67 | 1028.7 |
| 20260831054217 | 64 | 62 | 10.4 | 12.2 | 0.00 | 0.01 | 0.01 | 68 | 1028.8 |
| 20260831053717 | 64 | 64 | 9.6 | 12.2 | 0.00 | 0.01 | 0.01 | 68 | 1028.7 |
| 20260831053216 | 64 | 62 | 10.4 | 12.2 | 0.00 | 0.01 | 0.01 | 69 | 1028.8 |
| 20260831052717 | 64 | 65 | 10.4 | 11.3 | 0.00 | 0.01 | 0.01 | 70 | 1028.7 |
| 20260831052216 | 64 | 67 | 9.6 | 13.0 | 0.00 | 0.01 | 0.01 | 69 | 1028.8 |
| 20260831051717 | 64 | 63 | 10.4 | 12.2 | 0.00 | 0.01 | 0.01 | 69 | 1028.8 |
| 20260831051216 | 65 | 63 | 10.4 | 12.2 | 0.00 | 0.01 | 0.01 | 69 | 1028.9 |
| 20260831050217 | 65 | 66 | 10.4 | 11.3 | 0.00 | 0.01 | 0.01 | 68 | 1028.9 |
| 20260831045717 | 65 | 67 | 8.7 | 11.3 | 0.00 | 0.01 | 0.01 | 67 | 1029.0 |
| 20260831045217 | 65 | 65 | 8.7 | 11.3 | 0.00 | 0.01 | 0.01 | 68 | 1028.8 |
| 20260831044717 | 65 | 65 | 9.6 | 11.3 | 0.00 | 0.01 | 0.01 | 67 | 1028.9 |
| 20260831044216 | 65 | 65 | 7.8 | 10.4 | 0.00 | 0.01 | 0.01 | 65 | 1029.1 |
| 20260831043717 | 65 | 62 | 8.7 | 10.4 | 0.00 | 0.01 | 0.01 | 64 | 1029.0 |
| 20260831042717 | 66 | 62 | 8.7 | 10.4 | 0.00 | 0.01 | 0.01 | 60 | 1029.0 |
| 20260831042216 | 66 | 60 | 7.8 | 10.4 | 0.00 | 0.01 | 0.01 | 60 | 1029.0 |
| 20260831041717 | 65 | 64 | 8.7 | 10.4 | 0.00 | 0.01 | 0.01 | 63 | 1029.0 |
| 20260831041216 | 65 | 57 | 7.8 | 10.4 | 0.00 | 0.01 | 0.01 | 64 | 1029.0 |
| 20260831040216 | 65 | 59 | 8.7 | 10.4 | 0.00 | 0.01 | 0.01 | 65 | 1029.1 |
| 20260831035717 | 65 | 56 | 7.8 | 10.4 | 0.00 | 0.01 | 0.01 | 62 | 1029.1 |
| 20260831035216 | 66 | 57 | 7.8 | 10.4 | 0.00 | 0.01 | 0.01 | 62 | 1029.1 |
| 20260831034217 | 66 | 64 | 8.7 | 10.4 | 0.00 | 0.01 | 0.01 | 65 | 1029.2 |
| 20260831033717 | 66 | 62 | 9.6 | 10.4 | 0.00 | 0.01 | 0.01 | 64 | 1029.2 |
| 20260831033217 | 66 | 65 | 10.4 | 11.3 | 0.00 | 0.01 | 0.01 | 66 | 1029.3 |
| 20260831032717 | 66 | 67 | 10.4 | 11.3 | 0.00 | 0.01 | 0.01 | 66 | 1029.4 |
| 20260831032217 | 66 | 65 | 8.7 | 10.4 | 0.00 | 0.01 | 0.01 | 65 | 1029.4 |
| 20260831031717 | 66 | 70 | 9.6 | 11.3 | 0.00 | 0.01 | 0.01 | 65 | 1029.5 |
| 20260831030716 | 66 | 64 | 8.7 | 10.4 | 0.00 | 0.01 | 0.01 | 64 | 1029.4 |
| 20260831030216 | 66 | 66 | 8.7 | 10.4 | 0.00 | 0.01 | 0.01 | 64 | 1029.5 |
| 20260831025716 | 67 | 66 | 8.7 | 10.4 | 0.00 | 0.01 | 0.01 | 64 | 1029.5 |
| 20260831025216 | 67 | 69 | 8.7 | 10.4 | 0.00 | 0.01 | 0.01 | 62 | 1029.6 |
| 20260831024717 | 68 | 71 | 8.7 | 10.4 | 0.00 | 0.01 | 0.01 | 61 | 1029.7 |
| 20260831024217 | 67 | 74 | 7.8 | 10.4 | 0.00 | 0.01 | 0.01 | 63 | 1029.6 |
| 20260831023716 | 67 | 72 | 5.2 | 8.7 | 0.00 | 0.01 | 0.01 | 64 | 1029.8 |
| 20260831023216 | 66 | 70 | 7.8 | 10.4 | 0.00 | 0.01 | 0.01 | 63 | 1029.9 |
| 20260831022716 | 67 | 62 | 8.7 | 10.4 | 0.00 | 0.01 | 0.01 | 61 | 1029.9 |
| 20260831022217 | 69 | 69 | 6.1 | 8.7 | 0.00 | 0.01 | 0.01 | 59 | 1030.0 |
| 20260831021716 | 68 | 84 | 5.2 | 7.0 | 0.00 | 0.01 | 0.01 | 60 | 1030.1 |
| 20260831021216 | 67 | 79 | 6.1 | 7.8 | 0.00 | 0.01 | 0.01 | 55 | 1030.3 |
| 20260831020717 | 66 | 84 | 6.1 | 7.8 | 0.00 | 0.01 | 0.01 | 50 | 1030.3 |
| 20260831015717 | 66 | 60 | 7.8 | 8.7 | 0.00 | 0.01 | 0.01 | 52 | 1030.5 |
| 20260831015216 | 65 | 56 | 7.0 | 8.7 | 0.00 | 0.01 | 0.01 | 52 | 1030.6 |
| 20260831014716 | 66 | 53 | 7.0 | 10.4 | 0.00 | 0.01 | 0.01 | 54 | 1030.8 |
| 20260831014216 | 66 | 49 | 7.0 | 7.8 | 0.00 | 0.01 | 0.01 | 54 | 1030.7 |
| 20260831013716 | 66 | 43 | 3.5 | 6.1 | 0.00 | 0.01 | 0.01 | 56 | 1030.8 |
| 20260831011216 | 67 | 72 | 0.9 | 4.3 | 0.00 | 0.01 | 0.01 | 55 | 1031.1 |
| 20260831010216 | 66 | 310 | 0.9 | 4.3 | 0.00 | 0.01 | 0.01 | 55 | 1031.5 |
| 20260831005716 | 66 | 2 | 5.2 | 7.8 | 0.00 | 0.01 | 0.01 | 54 | 1031.5 |
| 20260831005216 | 66 | 352 | 2.6 | 7.0 | 0.00 | 0.01 | 0.01 | 55 | 1031.5 |
| 20260831004216 | 64 | 321 | 6.1 | 8.7 | 0.00 | 0.01 | 0.01 | 55 | 1031.5 |
| 20260831003716 | 64 | 338 | 5.2 | 7.8 | 0.00 | 0.01 | 0.01 | 59 | 1031.6 |
| 20260831003217 | 63 | 344 | 7.8 | 10.4 | 0.00 | 0.01 | 0.01 | 59 | 1031.4 |
| 20260831002716 | 63 | 343 | 7.0 | 10.4 | 0.00 | 0.01 | 0.01 | 61 | 1031.5 |
| 20260831002216 | 63 | 348 | 4.3 | 10.4 | 0.00 | 0.01 | 0.01 | 63 | 1031.5 |
| 20260831001716 | 62 | 355 | 6.1 | 11.3 | 0.00 | 0.01 | 0.01 | 64 | 1031.6 |
| 20260831001216 | 62 | 351 | 9.6 | 11.3 | 0.00 | 0.01 | 0.01 | 63 | 1031.6 |